Weather History for Mercury, NV

Change the Weather History Date:

Wednesday, October 3, 2012

  Actual Average Record
Temperature  
Mean Temperature 76 °F -  
Max Temperature 93 °F 83 °F 93 °F (2001)
Min Temperature 60 °F 53 °F 37 °F (2002)
Cooling Degree Days 12    
Growing Degree Days 26 (Base 50)    
Moisture  
Dew Point 23 °F    
Average Humidity 13    
Maximum Humidity 21    
Minimum Humidity 4    
Precipitation  
Precipitation 0.00 in - - ()
Sea Level Pressure  
Sea Level Pressure 29.83 in    
Wind  
Wind Speed 5 mph (SSW)    
Max Wind Speed 18 mph    
Max Gust Speed 28 mph    
Visibility 10 miles    
Events      
Averages and records for this station are not official NWS values.
T = Trace of Precipitation, MM = Missing Value Source: NWS Daily Summary

Daily Weather History Graph

Daily Weather History Graph

Search for Another Location

Airport:

Trip Planner

Search our weather history database for the weather conditions in past years. The results will help you decide how hot, cold, wet, or windy it might be!

Date:

Astronomy

Oct. 03, 2012 Rise Set
Actual Time 6:41 AM PDT 6:23 PM PDT
Civil Twilight 6:15 AM PDT 6:49 PM PDT
Nautical Twilight 5:45 AM PDT 7:19 PM PDT
Astronomical Twilight 5:15 AM PDT 7:49 PM PDT
Moon 8:25 PM PDT (10/3) 10:02 AM PDT (10/3)
Length of Visible Light 12h 33m
Length of Day
11h 42m
Waning Gibbous, 88% of the Moon is Illuminated
Oct 3
Waning Gibbous
Oct 8
Last Quarter
Oct 15
New
Oct 21
First Quarter
Oct 29
Full

Hourly Weather History & Observations

Time (PDT) Temp. Dew Point Humidity Pressure Visibility Wind Dir Wind Speed Gust Speed Precip Events Conditions
12:52 AM 66.0 °F 19.9 °F 17% 29.79 in 10.0 mi Variable 3.5 mph - N/A   Clear
1:52 AM 68.0 °F 19.9 °F 16% 29.79 in 10.0 mi East 3.5 mph - N/A   Clear
2:52 AM 64.0 °F 19.9 °F 18% 29.80 in 10.0 mi East 3.5 mph - N/A   Clear
3:52 AM 66.0 °F 21.0 °F 18% 29.80 in 10.0 mi Calm Calm - N/A   Clear
4:52 AM 61.0 °F 21.0 °F 21% 29.81 in 10.0 mi East 3.5 mph - N/A   Clear
5:52 AM 61.0 °F 21.0 °F 21% 29.83 in 10.0 mi East 4.6 mph - N/A   Clear
6:52 AM 61.0 °F 21.0 °F 21% 29.85 in 10.0 mi Calm Calm - N/A   Clear
7:52 AM 66.0 °F 21.0 °F 18% 29.87 in 10.0 mi Calm Calm - N/A   Clear
8:52 AM 72.0 °F 21.0 °F 15% 29.88 in 10.0 mi Calm Calm - N/A   Mostly Cloudy
9:52 AM 80.1 °F 21.9 °F 12% 29.89 in 10.0 mi Calm Calm - N/A   Clear
10:52 AM 84.0 °F 25.0 °F 12% 29.88 in 10.0 mi WSW 10.4 mph - N/A   Clear
11:52 AM 87.1 °F 26.1 °F 11% 29.86 in 10.0 mi SW 12.7 mph - N/A   Clear
12:52 PM 89.1 °F 26.1 °F 10% 29.84 in 10.0 mi WSW 11.5 mph - N/A   Clear
1:52 PM 91.9 °F 26.1 °F 9% 29.82 in 10.0 mi SW 17.3 mph 27.6 mph N/A   Clear
2:52 PM 91.9 °F 25.0 °F 9% 29.82 in 10.0 mi SSW 13.8 mph 25.3 mph N/A   Clear
3:52 PM 91.9 °F 24.1 °F 9% 29.81 in 10.0 mi SSW 18.4 mph 24.2 mph N/A   Clear
4:52 PM 91.0 °F 25.0 °F 9% 29.81 in 10.0 mi SW 13.8 mph - N/A   Clear
5:52 PM 88.0 °F 25.0 °F 10% 29.81 in 10.0 mi SSW 11.5 mph - N/A   Clear
6:52 PM 84.9 °F 25.0 °F 11% 29.81 in 10.0 mi SSW 6.9 mph - N/A   Clear
7:52 PM 82.0 °F 25.0 °F 12% 29.83 in 10.0 mi South 4.6 mph - N/A   Clear
8:52 PM 77.0 °F 25.0 °F 15% 29.83 in 10.0 mi Calm Calm - N/A   Clear
9:52 PM 78.1 °F 24.1 °F 14% 29.83 in 10.0 mi SW 10.4 mph - N/A   Clear
10:52 PM 78.1 °F 25.0 °F 14% 29.84 in 10.0 mi SW 6.9 mph - N/A   Clear
11:52 PM 78.1 °F 25.0 °F 14% 29.83 in 10.0 mi Calm Calm - N/A   Clear